TimeCST,TemperatureF,Dew PointF,Humidity,Sea Level PressureIn,VisibilityMPH,Wind Direction,Wind SpeedMPH,Gust SpeedMPH,PrecipitationIn,Events,Conditions,WindDirDegrees,DateUTC
12:53 AM,7.0,1.0,77,30.25,10.0,NW,16.1,-,N/A,,Clear,310,2012-12-10 06:53:00
1:53 AM,6.1,1.0,80,30.24,10.0,NW,16.1,-,N/A,,Clear,320,2012-12-10 07:53:00
2:53 AM,3.9,-0.0,84,30.24,10.0,WNW,9.2,-,N/A,,Clear,300,2012-12-10 08:53:00
3:53 AM,3.0,-2.0,80,30.23,10.0,WNW,8.1,-,N/A,,Clear,300,2012-12-10 09:53:00
4:53 AM,1.9,-2.0,83,30.18,10.0,NW,6.9,-,N/A,,Clear,310,2012-12-10 10:53:00
5:53 AM,1.0,-4.0,79,30.17,10.0,West,6.9,-,N/A,,Clear,270,2012-12-10 11:53:00
6:53 AM,1.0,-2.9,83,30.17,10.0,West,6.9,-,N/A,,Clear,270,2012-12-10 12:53:00
7:53 AM,1.0,-4.0,79,30.18,10.0,WSW,5.8,-,N/A,,Clear,250,2012-12-10 13:53:00
8:53 AM,5.0,-0.9,76,30.16,10.0,WSW,5.8,-,N/A,,Clear,240,2012-12-10 14:53:00
9:53 AM,14.0,3.0,62,30.13,10.0,SW,3.5,-,N/A,,Clear,220,2012-12-10 15:53:00
10:53 AM,21.0,5.0,50,30.09,10.0,SSW,8.1,-,N/A,,Clear,200,2012-12-10 16:53:00
11:53 AM,27.0,5.0,39,30.02,10.0,South,10.4,-,N/A,,Clear,190,2012-12-10 17:53:00
12:53 PM,28.9,5.0,36,29.98,10.0,SSW,13.8,23.0,N/A,,Clear,210,2012-12-10 18:53:00
1:53 PM,33.1,5.0,31,29.95,10.0,SW,9.2,21.9,N/A,,Clear,220,2012-12-10 19:53:00
2:53 PM,35.1,6.1,30,29.92,10.0,West,11.5,-,N/A,,Clear,260,2012-12-10 20:53:00
3:53 PM,36.0,6.1,29,29.92,10.0,West,13.8,-,N/A,,Clear,270,2012-12-10 21:53:00
4:53 PM,33.1,5.0,31,29.94,10.0,WNW,5.8,-,N/A,,Clear,290,2012-12-10 22:53:00
5:53 PM,28.9,6.1,38,29.95,10.0,Calm,Calm,-,N/A,,Clear,0,2012-12-10 23:53:00
6:53 PM,23.0,8.1,53,29.98,10.0,Calm,Calm,-,N/A,,Clear,0,2012-12-11 00:53:00
7:53 PM,19.0,3.9,52,30.00,10.0,Calm,Calm,-,N/A,,Clear,0,2012-12-11 01:53:00
8:53 PM,19.9,3.9,50,30.01,10.0,West,3.5,-,N/A,,Clear,270,2012-12-11 02:53:00
9:53 PM,21.0,6.1,53,30.01,10.0,Calm,Calm,-,N/A,,Scattered Clouds,0,2012-12-11 03:53:00
10:53 PM,24.1,7.0,48,29.99,10.0,WSW,4.6,-,N/A,,Mostly Cloudy,250,2012-12-11 04:53:00
11:53 PM,23.0,7.0,50,30.00,10.0,WSW,4.6,-,N/A,,Overcast,240,2012-12-11 05:53:00